Regional Weather Roundup
Issued by NWS

Home | Current Version | Previous Version | Graphics & Text | Print | Product List | Glossary On
Versions: 1 2 3 4 5 6 7 8 9 10 11 12 13 14 15 16 17 18 19 20 21 22 23 24 25 26 27 28 29 30 31 32 33 34 35 36 37 38 39 40 41 42 43 44 45 46 47 48 49 50
950
ASUS43 KIND 090559
RWRIN

WEATHER ROUNDUP FOR INDIANA
NATIONAL WEATHER SERVICE INDIANAPOLIS IN
100 AM EST FRI DEC 09 2016

NOTE: "FAIR" INDICATES FEW OR NO CLOUDS BELOW 12,000 FEET WITH NO
SIGNIFICANT WEATHER AND/OR OBSTRUCTIONS TO VISIBILITY.

* - STATION DOES NOT REPORT WEATHER SUCH AS PRECIPITATION OR FOG.

+ - STATION NOT QUALITY CONTROLLED BY THE NATIONAL WEATHER SERVICE.
    USE DATA WITH CAUTION...ESPECIALLY DEWPOINT AND RELATIVE
    HUMIDITY OBSERVATIONS.

INZ001>003-010>013-019-020-090700-
NORTHWEST INDIANA

CITY           SKY/WX    TMP DP  RH WIND       PRES   REMARKS

$$

LMZ046-743>745-090700-
SOUTHERN LAKE MICHIGAN

STATION/POSITION TIME  TEMP    WIND        PRES    WAVE
                       AIR SEA DIR/SP/G            HT
                 (UTC) (F)     (DEG/KT/KT) (MB)    (FT)

$$

INZ004-005-014>016-021>024-090700-
NORTH CENTRAL INDIANA

CITY           SKY/WX    TMP DP  RH WIND       PRES   REMARKS
GOSHEN         CLEAR     21  15  78 SW14      30.35S WCI   8
6HR MIN TEMP:  20; 6HR MAX TEMP:  22; 6HR PCP: TRACE;

SOUTH BEND     LGT SNOW  21  19  92 SW13      30.36S VSB 1   WCI   9
6HR MIN TEMP:  19; 6HR MAX TEMP:  22; 6HR PCP:  0.05;


$$

INZ006>009-017-018-025>027-090700-
NORTHEAST INDIANA

CITY           SKY/WX    TMP DP  RH WIND       PRES   REMARKS
ANGOLA *+      PTCLDY    19  18  93 W9        30.30R WCI   9
FORT WAYNE     PTCLDY    21  15  78 W16       30.37F WCI   7
6HR MIN TEMP:  20; 6HR MAX TEMP:  22; 6HR PCP: TRACE;

KENDALLVILLE + CLEAR     20  16  84 W15       30.32F WCI   7

$$

INZ028-029-035-036-043>045-051>053-090700-
WEST CENTRAL INDIANA

CITY           SKY/WX    TMP DP  RH WIND       PRES   REMARKS
CRAWFORDSVL +  LGT SNOW  19  17  91 W8        30.48S WCI   9
6HR MIN TEMP:  19; 6HR MAX TEMP:  20;

GREENCASTLE +  LGT SNOW  19  19 100 W3        30.49S
LAFAYETTE      LGT SNOW  21  17  84 W9        30.47S FOG     WCI  11
6HR MIN TEMP:  20; 6HR MAX TEMP:  22; 6HR PCP: TRACE;

TERRE HAUTE    FLURRIES  21  14  74 W10       30.52S WCI  10
6HR MIN TEMP:  21; 6HR MAX TEMP:  22; 6HR PCP: TRACE;


$$

INZ030>032-037>040-046>048-054>057-064-065-090700-
CENTRAL INDIANA

CITY           SKY/WX    TMP DP  RH WIND       PRES   REMARKS
GREENWOOD *+   CLOUDY    22  17  81 W9        30.47F WCI  11
6HR MIN TEMP:  22; 6HR MAX TEMP:  24;

INDIANAPOLIS   FLURRIES  20  15  81 W13       30.46S WCI   7
6HR MIN TEMP:  20; 6HR MAX TEMP:  22; 6HR PCP: TRACE;

-EAGLE CREEK   LGT SNOW  21  16  81 W10       30.46S WCI  10
6HR MIN TEMP:  21; 6HR MAX TEMP:  23; 6HR PCP: TRACE;

KOKOMO +       FLURRIES  21  18  88 W12       30.44S WCI   9
6HR MIN TEMP:  20; 6HR MAX TEMP:  21; 6HR PCP: TRACE;

SHELBYVILLE    FLURRIES  21  14  74 W9        30.46S WCI  11
6HR MIN TEMP:  21; 6HR MAX TEMP:  24; 6HR PCP: TRACE;


$$

INZ033-034-041-042-049-050-058-059-090700-
EAST CENTRAL INDIANA

CITY           SKY/WX    TMP DP  RH WIND       PRES   REMARKS
MUNCIE         LGT SNOW  21  17  84 W7        30.43S FOG     WCI  12
6HR MIN TEMP:  21; 6HR MAX TEMP:  21; 6HR PCP: TRACE;


$$

INZ060-061-067>069-081>083-085>088-090700-
SOUTHWEST INDIANA

CITY           SKY/WX    TMP DP  RH WIND       PRES   REMARKS
EVANSVILLE     CLOUDY    27  15  61 NW8       30.56R WCI  19
6HR MIN TEMP:  27; 6HR MAX TEMP:  28;

HUNTINGBURG *+ FLURRIES  24  16  71 N6        30.54S WCI  17
6HR MIN TEMP:  24; 6HR MAX TEMP:  26; 6HR PCP: TRACE;


$$

INZ062-063-066-070>080-084-089>092-090700-
SOUTH CENTRAL AND SOUTHEAST INDIANA

CITY           SKY/WX    TMP DP  RH WIND       PRES   REMARKS
BLOOMINGTON    FLURRIES  20  12  71 NW6       30.49S WCI  12
6HR MIN TEMP:  20; 6HR MAX TEMP:  23; 6HR PCP: TRACE;

MADISON *+     CLOUDY    23  14  68 NW9       30.50S WCI  13
SEYMOUR +      FLURRIES  25  14  63 NW9       30.51S WCI  15

$$





USA.gov is the U.S. government's official web portal to all federal, state and local government web resources and services.